Location: G�ppingen
(48.7089°N, 9.6563°E)
Time: 08:55:04
(UTC+01:00)

NOAA 19 - Visible Passes

Search period start: 22 March 2019 00:00
Search period end: 01 April 2019 01:00
Orbit: 842 x 861 km, 99.2° (Epoch: 21 March)

Date Brightness Start Highest point End Pass type
(mag) Time Alt. Az. Time Alt. Az. Time Alt. Az.
22 Mar 6.9 04:47:12 10° NNE 04:52:17 35° E 04:57:18 10° SSE visible
23 Mar 7.3 04:35:47 10° NE 04:40:32 28° E 04:45:16 10° SSE visible
24 Mar 7.6 04:24:25 10° NE 04:28:46 23° E 04:33:06 10° SE visible
25 Mar 7.9 04:13:10 10° NE 04:16:59 19° E 04:20:46 10° SE visible
26 Mar 8.0 04:02:06 10° NE 04:05:11 15° E 04:08:14 10° ESE visible
26 Mar 5.3 05:41:02 10° NNE 05:46:38 89° ESE 05:52:10 10° SSW visible
27 Mar 8.2 03:51:26 10° ENE 03:53:21 12° E 03:55:15 10° ESE visible
27 Mar 5.6 05:29:24 10° NNE 05:34:59 74° ESE 05:40:30 10° S visible
28 Mar 5.9 05:17:48 10° NNE 05:23:19 60° ESE 05:28:45 10° S visible
29 Mar 6.3 05:06:15 10° NNE 05:11:37 48° E 05:16:56 10° S visible
30 Mar 6.7 04:54:44 10° NNE 04:59:54 39° E 05:05:02 10° SSE visible
31 Mar 7.1 05:43:15 10° NNE 05:48:11 32° E 05:53:03 10° SSE visible
